Time,TemperatureF,DewpointF,PressureIn,WindDirection,WindDirectionDegrees,WindSpeedMPH,WindSpeedGustMPH,Humidity,HourlyPrecipIn,Conditions,Clouds,dailyrainin,SoftwareType,DateUTC
2013-11-02 00:00:00,44.8,44.5,29.63,WSW,238,2.5,2.9,99,0.01,,,0.00,WUHU216HW,2013-11-02 04:00:00,
2013-11-02 00:01:00,45.0,44.7,29.63,WSW,249,2.6,3.8,99,0.01,,,0.00,WUHU216HW,2013-11-02 04:01:00,
2013-11-02 00:02:00,45.0,44.7,29.63,West,270,2.4,3.8,99,0.01,,,0.00,WUHU216HW,2013-11-02 04:02:00,
2013-11-02 00:04:00,45.0,44.7,29.63,WSW,251,2.4,3.6,99,0.01,,,0.00,WUHU216HW,2013-11-02 04:04:00,
2013-11-02 00:09:00,45.0,44.7,29.63,WSW,250,1.7,2.0,99,0.01,,,0.00,WUHU216HW,2013-11-02 04:09:00,
2013-11-02 00:12:00,45.0,44.7,29.63,WSW,248,1.7,2.2,99,0.01,,,0.00,WUHU216HW,2013-11-02 04:12:00,
2013-11-02 00:13:00,45.0,44.7,29.63,WSW,258,2.2,2.7,99,0.01,,,0.00,WUHU216HW,2013-11-02 04:13:00,
2013-11-02 00:18:00,45.0,44.7,29.63,West,266,1.6,1.8,99,0.01,,,0.00,WUHU216HW,2013-11-02 04:18:00,
2013-11-02 00:22:00,45.0,44.7,29.63,WSW,242,2.2,2.9,99,0.02,,,0.01,WUHU216HW,2013-11-02 04:22:00,
2013-11-02 00:27:00,45.0,44.7,29.63,SW,219,1.4,2.0,99,0.02,,,0.01,WUHU216HW,2013-11-02 04:27:00,
2013-11-02 00:32:00,45.0,44.7,29.63,WSW,248,1.9,3.4,99,0.02,,,0.01,WUHU216HW,2013-11-02 04:32:00,
2013-11-02 00:37:00,45.0,44.7,29.62,West,265,2.0,2.5,99,0.02,,,0.01,WUHU216HW,2013-11-02 04:37:00,
2013-11-02 00:42:00,45.0,44.7,29.63,SW,232,0.6,1.1,99,0.03,,,0.02,WUHU216HW,2013-11-02 04:42:00,
2013-11-02 00:47:00,45.0,44.7,29.63,West,271,1.9,2.7,99,0.02,,,0.02,WUHU216HW,2013-11-02 04:47:00,
2013-11-02 00:53:00,45.0,44.7,29.62,West,262,1.4,1.6,99,0.02,,,0.02,WUHU216HW,2013-11-02 04:53:00,
2013-11-02 00:58:00,45.0,44.7,29.62,SW,226,1.1,1.1,99,0.02,,,0.02,WUHU216HW,2013-11-02 04:58:00,
2013-11-02 01:03:00,45.0,44.7,29.62,WSW,248,0.2,0.4,99,0.03,,,0.03,WUHU216HW,2013-11-02 05:03:00,
2013-11-02 01:08:00,45.0,44.7,29.62,WSW,248,1.3,1.8,99,0.03,,,0.03,WUHU216HW,2013-11-02 05:08:00,
2013-11-02 01:13:00,45.0,44.7,29.62,WSW,248,1.6,3.4,99,0.04,,,0.04,WUHU216HW,2013-11-02 05:13:00,
2013-11-02 01:18:00,45.0,44.7,29.62,West,280,1.6,1.8,99,0.04,,,0.04,WUHU216HW,2013-11-02 05:18:00,
2013-11-02 01:23:00,45.0,44.7,29.62,WNW,290,0.8,1.1,99,0.03,,,0.04,WUHU216HW,2013-11-02 05:23:00,
2013-11-02 01:28:00,45.0,44.7,29.62,West,267,1.0,1.1,99,0.03,,,0.04,WUHU216HW,2013-11-02 05:28:00,
2013-11-02 01:33:00,45.0,44.7,29.62,SW,225,2.1,2.5,99,0.03,,,0.04,WUHU216HW,2013-11-02 05:33:00,
2013-11-02 01:38:00,45.0,44.7,29.62,West,270,0.5,0.9,99,0.03,,,0.04,WUHU216HW,2013-11-02 05:38:00,
2013-11-02 01:43:00,45.0,44.7,29.62,WSW,256,1.0,1.6,99,0.02,,,0.04,WUHU216HW,2013-11-02 05:43:00,
2013-11-02 01:48:00,45.0,44.7,29.62,West,270,0.9,1.3,99,0.04,,,0.06,WUHU216HW,2013-11-02 05:48:00,
2013-11-02 01:53:00,45.0,44.7,29.62,WSW,241,0.5,1.1,99,0.04,,,0.06,WUHU216HW,2013-11-02 05:53:00,
2013-11-02 01:58:00,45.0,44.7,29.62,WSW,241,0.8,1.1,99,0.04,,,0.06,WUHU216HW,2013-11-02 05:58:00,
2013-11-02 02:03:00,45.0,44.7,29.62,WNW,293,0.3,0.4,99,0.03,,,0.06,WUHU216HW,2013-11-02 06:03:00,
2013-11-02 02:08:00,45.0,44.7,29.62,WNW,293,0.0,0.2,99,0.03,,,0.06,WUHU216HW,2013-11-02 06:08:00,
2013-11-02 02:13:00,45.0,44.7,29.62,SW,218,1.2,1.8,99,0.02,,,0.06,WUHU216HW,2013-11-02 06:13:00,
2013-11-02 02:18:00,45.0,44.7,29.62,WSW,248,0.7,0.7,99,0.04,,,0.08,WUHU216HW,2013-11-02 06:18:00,
2013-11-02 02:23:00,45.0,44.7,29.62,WSW,248,0.5,0.7,99,0.04,,,0.08,WUHU216HW,2013-11-02 06:23:00,
2013-11-02 02:28:00,45.0,44.7,29.62,WSW,248,1.0,1.6,99,0.04,,,0.08,WUHU216HW,2013-11-02 06:28:00,
2013-11-02 02:33:00,45.0,44.7,29.62,WSW,248,0.8,1.1,99,0.04,,,0.08,WUHU216HW,2013-11-02 06:33:00,
2013-11-02 02:38:00,45.0,44.7,29.62,WSW,248,0.2,0.4,99,0.04,,,0.08,WUHU216HW,2013-11-02 06:38:00,
2013-11-02 02:43:00,45.0,44.7,29.62,WSW,248,0.0,0.2,99,0.04,,,0.08,WUHU216HW,2013-11-02 06:43:00,
2013-11-02 02:48:00,45.2,44.9,29.62,WSW,248,0.0,0.2,99,0.02,,,0.08,WUHU216HW,2013-11-02 06:48:00,
2013-11-02 02:53:00,45.2,44.9,29.62,North,0,0.0,0.0,99,0.02,,,0.08,WUHU216HW,2013-11-02 06:53:00,
2013-11-02 02:58:00,45.2,44.9,29.62,North,0,0.0,0.0,99,0.04,,,0.10,WUHU216HW,2013-11-02 06:58:00,
2013-11-02 03:03:00,45.2,44.9,29.62,NW,315,0.5,0.7,99,0.04,,,0.10,WUHU216HW,2013-11-02 07:03:00,
2013-11-02 03:08:00,45.0,44.7,29.62,North,0,0.0,0.4,99,0.04,,,0.10,WUHU216HW,2013-11-02 07:08:00,
2013-11-02 03:13:00,45.0,44.7,29.62,West,262,0.6,1.1,99,0.04,,,0.10,WUHU216HW,2013-11-02 07:13:00,
2013-11-02 03:18:00,45.0,44.7,29.62,West,270,0.6,0.7,99,0.02,,,0.10,WUHU216HW,2013-11-02 07:18:00,
2013-11-02 03:23:00,45.0,44.7,29.62,WSW,248,0.8,0.9,99,0.02,,,0.10,WUHU216HW,2013-11-02 07:23:00,
2013-11-02 03:28:00,45.0,44.7,29.62,NNW,338,0.1,0.4,99,0.03,,,0.11,WUHU216HW,2013-11-02 07:28:00,
2013-11-02 03:33:00,45.0,44.7,29.63,North,0,0.0,0.0,99,0.03,,,0.11,WUHU216HW,2013-11-02 07:33:00,
2013-11-02 03:38:00,45.0,44.7,29.63,West,274,1.5,2.0,99,0.03,,,0.11,WUHU216HW,2013-11-02 07:38:00,
2013-11-02 03:43:00,45.0,44.7,29.63,WNW,285,1.2,2.0,99,0.03,,,0.11,WUHU216HW,2013-11-02 07:43:00,
2013-11-02 03:48:00,45.0,44.7,29.63,West,270,0.2,0.2,99,0.03,,,0.11,WUHU216HW,2013-11-02 07:48:00,
2013-11-02 03:53:00,45.0,44.7,29.63,NNW,330,1.1,1.3,99,0.03,,,0.11,WUHU216HW,2013-11-02 07:53:00,
2013-11-02 03:58:00,45.0,44.7,29.63,West,270,0.6,1.1,99,0.02,,,0.12,WUHU216HW,2013-11-02 07:58:00,
2013-11-02 04:03:00,45.2,44.9,29.63,NNW,347,0.6,1.1,99,0.02,,,0.12,WUHU216HW,2013-11-02 08:03:00,
2013-11-02 04:09:00,45.0,44.7,29.63,WNW,293,0.5,0.9,99,0.02,,,0.12,WUHU216HW,2013-11-02 08:09:00,
2013-11-02 04:14:00,45.0,44.7,29.63,West,270,0.5,1.1,99,0.03,,,0.13,WUHU216HW,2013-11-02 08:14:00,
2013-11-02 04:19:00,45.0,44.7,29.62,WNW,284,1.6,1.8,99,0.03,,,0.13,WUHU216HW,2013-11-02 08:19:00,
2013-11-02 04:24:00,45.0,44.7,29.63,WNW,293,0.4,1.1,99,0.03,,,0.13,WUHU216HW,2013-11-02 08:24:00,
2013-11-02 04:29:00,45.0,44.7,29.63,WSW,248,0.8,1.1,99,0.02,,,0.13,WUHU216HW,2013-11-02 08:29:00,
2013-11-02 04:34:00,45.0,44.7,29.63,NW,315,1.1,1.1,99,0.02,,,0.13,WUHU216HW,2013-11-02 08:34:00,
2013-11-02 04:39:00,45.0,44.7,29.63,North,0,0.9,1.1,99,0.02,,,0.13,WUHU216HW,2013-11-02 08:39:00,
2013-11-02 04:44:00,45.0,44.7,29.63,North,0,0.8,1.6,99,0.02,,,0.13,WUHU216HW,2013-11-02 08:44:00,
2013-11-02 04:49:00,44.8,44.5,29.63,NE,45,0.3,0.4,99,0.02,,,0.13,WUHU216HW,2013-11-02 08:49:00,
2013-11-02 04:54:00,44.6,44.3,29.63,NNW,338,0.4,0.7,99,0.03,,,0.15,WUHU216HW,2013-11-02 08:54:00,
2013-11-02 04:59:00,44.6,44.3,29.63,NNW,338,0.0,0.2,99,0.03,,,0.15,WUHU216HW,2013-11-02 08:59:00,
2013-11-02 05:04:00,44.5,44.2,29.63,NNW,338,0.3,0.4,99,0.03,,,0.15,WUHU216HW,2013-11-02 09:04:00,
2013-11-02 05:09:00,44.3,44.0,29.63,North,0,0.0,0.2,99,0.03,,,0.15,WUHU216HW,2013-11-02 09:09:00,
2013-11-02 05:14:00,44.3,44.0,29.64,NNW,338,0.4,0.7,99,0.02,,,0.15,WUHU216HW,2013-11-02 09:14:00,
2013-11-02 05:19:00,44.3,44.0,29.64,NNW,338,0.6,1.8,99,0.02,,,0.15,WUHU216HW,2013-11-02 09:19:00,
2013-11-02 05:24:00,44.3,44.0,29.64,North,0,0.6,1.3,99,0.02,,,0.15,WUHU216HW,2013-11-02 09:24:00,
2013-11-02 05:29:00,44.1,43.8,29.64,North,0,0.5,0.9,99,0.04,,,0.17,WUHU216HW,2013-11-02 09:29:00,
2013-11-02 05:34:00,44.1,43.8,29.64,North,0,0.3,0.4,99,0.04,,,0.17,WUHU216HW,2013-11-02 09:34:00,
2013-11-02 05:39:00,44.1,43.8,29.64,North,0,0.5,0.7,99,0.04,,,0.17,WUHU216HW,2013-11-02 09:39:00,
2013-11-02 05:44:00,44.1,43.8,29.65,NNW,338,0.3,0.4,99,0.04,,,0.17,WUHU216HW,2013-11-02 09:44:00,
2013-11-02 05:49:00,44.1,43.8,29.65,North,0,0.2,0.2,99,0.04,,,0.17,WUHU216HW,2013-11-02 09:49:00,
2013-11-02 05:54:00,44.1,43.8,29.65,NNW,334,1.3,1.8,99,0.02,,,0.17,WUHU216HW,2013-11-02 09:54:00,
2013-11-02 05:59:00,44.1,43.8,29.65,North,0,0.1,0.4,99,0.02,,,0.17,WUHU216HW,2013-11-02 09:59:00,
2013-11-02 06:04:00,44.1,43.8,29.66,North,0,0.1,0.2,99,0.02,,,0.17,WUHU216HW,2013-11-02 10:04:00,
2013-11-02 06:09:00,44.1,43.8,29.66,North,0,0.7,0.9,99,0.02,,,0.17,WUHU216HW,2013-11-02 10:09:00,
2013-11-02 06:14:00,44.1,43.8,29.66,NW,308,0.7,1.1,99,0.02,,,0.17,WUHU216HW,2013-11-02 10:14:00,
2013-11-02 06:19:00,44.1,43.8,29.66,North,0,0.6,0.7,99,0.02,,,0.17,WUHU216HW,2013-11-02 10:19:00,
2013-11-02 06:24:00,44.1,43.8,29.66,NNW,339,0.5,1.1,99,0.02,,,0.17,WUHU216HW,2013-11-02 10:24:00,
2013-11-02 06:29:00,44.1,43.8,29.66,North,0,0.2,0.4,99,0.00,,,0.17,WUHU216HW,2013-11-02 10:29:00,
2013-11-02 06:34:00,44.3,44.0,29.67,NNW,344,0.4,0.4,99,0.01,,,0.18,WUHU216HW,2013-11-02 10:34:00,
2013-11-02 06:39:00,44.1,43.8,29.66,NNW,343,0.8,0.9,99,0.01,,,0.18,WUHU216HW,2013-11-02 10:39:00,
2013-11-02 06:44:00,44.1,43.8,29.67,NNE,16,4.2,5.8,99,0.01,,,0.18,WUHU216HW,2013-11-02 10:44:00,
2013-11-02 06:49:00,43.6,43.3,29.68,North,356,2.9,3.4,99,0.01,,,0.18,WUHU216HW,2013-11-02 10:49:00,
2013-11-02 06:54:00,43.2,42.6,29.68,North,0,2.1,3.1,98,0.01,,,0.18,WUHU216HW,2013-11-02 10:54:00,
2013-11-02 06:59:00,42.8,42.2,29.68,North,356,2.9,3.4,98,0.01,,,0.18,WUHU216HW,2013-11-02 10:59:00,
2013-11-02 07:04:00,42.7,42.1,29.68,North,354,1.6,2.2,98,0.01,,,0.18,WUHU216HW,2013-11-02 11:04:00,
2013-11-02 07:09:00,42.5,41.9,29.68,North,0,2.2,4.0,98,0.01,,,0.18,WUHU216HW,2013-11-02 11:09:00,
2013-11-02 07:14:00,42.5,41.9,29.68,North,356,1.4,1.6,98,0.01,,,0.18,WUHU216HW,2013-11-02 11:14:00,
2013-11-02 07:19:00,42.3,41.7,29.68,North,355,2.0,2.9,98,0.01,,,0.18,WUHU216HW,2013-11-02 11:19:00,
2013-11-02 07:25:00,42.1,41.5,29.69,North,0,1.4,2.0,98,0.01,,,0.18,WUHU216HW,2013-11-02 11:25:00,
2013-11-02 07:30:00,42.1,41.5,29.69,North,0,1.5,2.2,98,0.01,,,0.18,WUHU216HW,2013-11-02 11:30:00,
2013-11-02 07:35:00,42.1,41.5,29.69,North,0,1.5,1.8,98,0.00,,,0.18,WUHU216HW,2013-11-02 11:35:00,
2013-11-02 07:40:00,41.9,41.3,29.69,North,2,5.0,6.0,98,0.00,,,0.18,WUHU216HW,2013-11-02 11:40:00,
2013-11-02 07:45:00,41.9,41.3,29.69,North,0,2.7,3.4,98,0.01,,,0.19,WUHU216HW,2013-11-02 11:45:00,
2013-11-02 07:50:00,41.8,41.5,29.70,North,5,2.6,3.8,99,0.01,,,0.19,WUHU216HW,2013-11-02 11:50:00,
2013-11-02 07:55:00,41.8,41.5,29.70,North,0,1.1,1.8,99,0.01,,,0.19,WUHU216HW,2013-11-02 11:55:00,
2013-11-02 08:00:00,41.8,41.5,29.70,NNW,345,1.3,2.2,99,0.01,,,0.19,WUHU216HW,2013-11-02 12:00:00,
2013-11-02 08:05:00,41.6,41.3,29.71,North,0,3.7,4.7,99,0.01,,,0.19,WUHU216HW,2013-11-02 12:05:00,
2013-11-02 08:10:00,41.6,41.3,29.71,North,7,1.5,2.0,99,0.01,,,0.19,WUHU216HW,2013-11-02 12:10:00,
2013-11-02 08:15:00,41.6,41.0,29.71,North,4,1.2,2.0,98,0.01,,,0.19,WUHU216HW,2013-11-02 12:15:00,
2013-11-02 08:20:00,41.4,41.1,29.71,North,0,0.7,0.7,99,0.01,,,0.19,WUHU216HW,2013-11-02 12:20:00,
2013-11-02 08:25:00,41.4,40.8,29.71,North,3,1.7,2.7,98,0.01,,,0.19,WUHU216HW,2013-11-02 12:25:00,
2013-11-02 08:30:00,41.4,41.1,29.71,North,354,1.7,4.0,99,0.01,,,0.19,WUHU216HW,2013-11-02 12:30:00,
2013-11-02 08:35:00,41.4,41.1,29.72,North,0,3.0,3.4,99,0.01,,,0.19,WUHU216HW,2013-11-02 12:35:00,
2013-11-02 08:40:00,41.4,41.1,29.72,North,359,2.7,3.4,99,0.00,,,0.19,WUHU216HW,2013-11-02 12:40:00,
2013-11-02 08:45:00,41.4,41.1,29.72,North,7,2.1,2.5,99,0.00,,,0.19,WUHU216HW,2013-11-02 12:45:00,
2013-11-02 08:50:00,41.4,41.1,29.72,NNW,344,3.0,6.7,99,0.00,,,0.19,WUHU216HW,2013-11-02 12:50:00,
2013-11-02 08:55:00,41.2,40.9,29.72,North,350,2.5,4.3,99,0.00,,,0.19,WUHU216HW,2013-11-02 12:55:00,
2013-11-02 09:00:00,41.2,40.9,29.73,NNW,348,2.3,3.1,99,0.00,,,0.19,WUHU216HW,2013-11-02 13:00:00,
2013-11-02 09:05:00,41.2,40.9,29.73,North,356,1.7,2.5,99,0.00,,,0.19,WUHU216HW,2013-11-02 13:05:00,
2013-11-02 09:10:00,41.4,41.1,29.73,North,4,1.1,2.7,99,0.00,,,0.19,WUHU216HW,2013-11-02 13:10:00,
2013-11-02 09:15:00,41.4,41.1,29.74,NNW,345,1.8,2.7,99,0.00,,,0.19,WUHU216HW,2013-11-02 13:15:00,
2013-11-02 09:20:00,41.8,41.2,29.74,North,353,1.5,2.5,98,0.00,,,0.19,WUHU216HW,2013-11-02 13:20:00,
2013-11-02 09:25:00,41.9,41.3,29.74,NNW,348,1.8,2.5,98,0.00,,,0.19,WUHU216HW,2013-11-02 13:25:00,
2013-11-02 09:30:00,42.1,41.5,29.74,North,0,2.7,5.1,98,0.00,,,0.19,WUHU216HW,2013-11-02 13:30:00,
2013-11-02 09:35:00,42.3,41.7,29.74,NNW,338,1.4,1.6,98,0.00,,,0.19,WUHU216HW,2013-11-02 13:35:00,
2013-11-02 09:40:00,42.5,41.9,29.74,NNW,347,2.2,2.9,98,0.00,,,0.19,WUHU216HW,2013-11-02 13:40:00,
2013-11-02 09:45:00,42.7,42.1,29.74,North,0,2.7,4.7,98,0.00,,,0.19,WUHU216HW,2013-11-02 13:45:00,
2013-11-02 09:50:00,42.7,42.4,29.74,NNW,344,2.5,3.4,99,0.00,,,0.19,WUHU216HW,2013-11-02 13:50:00,
2013-11-02 09:55:00,42.7,42.1,29.74,North,4,4.8,6.5,98,0.00,,,0.19,WUHU216HW,2013-11-02 13:55:00,
2013-11-02 10:00:00,42.7,42.1,29.75,NNW,336,2.2,3.1,98,0.00,,,0.19,WUHU216HW,2013-11-02 14:00:00,
2013-11-02 10:05:00,42.7,42.4,29.75,NNW,347,1.8,2.2,99,0.00,,,0.19,WUHU216HW,2013-11-02 14:05:00,
2013-11-02 10:10:00,42.7,42.1,29.75,North,352,1.7,2.0,98,0.00,,,0.19,WUHU216HW,2013-11-02 14:10:00,
2013-11-02 10:15:00,42.8,42.2,29.75,North,0,3.6,3.8,98,0.00,,,0.19,WUHU216HW,2013-11-02 14:15:00,
2013-11-02 10:20:00,42.8,42.2,29.75,North,4,4.4,5.4,98,0.00,,,0.19,WUHU216HW,2013-11-02 14:20:00,
2013-11-02 10:25:00,42.8,42.2,29.76,NNE,28,1.3,2.2,98,0.00,,,0.19,WUHU216HW,2013-11-02 14:25:00,
2013-11-02 10:31:00,43.0,42.4,29.76,North,355,1.8,2.5,98,0.00,,,0.19,WUHU216HW,2013-11-02 14:31:00,
2013-11-02 10:36:00,43.2,42.6,29.75,NNW,344,1.6,2.0,98,0.00,,,0.19,WUHU216HW,2013-11-02 14:36:00,
2013-11-02 10:41:00,43.2,42.6,29.76,North,353,2.6,3.4,98,0.00,,,0.19,WUHU216HW,2013-11-02 14:41:00,
2013-11-02 10:46:00,43.6,43.3,29.76,NNW,340,1.4,2.0,99,0.00,,,0.19,WUHU216HW,2013-11-02 14:46:00,
2013-11-02 10:51:00,43.9,43.6,29.76,North,356,1.4,2.2,99,0.00,,,0.19,WUHU216HW,2013-11-02 14:51:00,
2013-11-02 10:56:00,44.1,43.8,29.76,NNE,20,4.0,4.7,99,0.00,,,0.19,WUHU216HW,2013-11-02 14:56:00,
2013-11-02 11:01:00,44.1,43.5,29.76,NNW,338,3.3,4.0,98,0.00,,,0.19,WUHU216HW,2013-11-02 15:01:00,
2013-11-02 11:06:00,43.9,43.3,29.76,North,354,3.6,5.4,98,0.00,,,0.19,WUHU216HW,2013-11-02 15:06:00,
2013-11-02 11:11:00,43.7,43.1,29.76,North,359,4.2,4.9,98,0.00,,,0.19,WUHU216HW,2013-11-02 15:11:00,
2013-11-02 11:16:00,43.9,43.3,29.76,North,0,4.2,6.0,98,0.00,,,0.19,WUHU216HW,2013-11-02 15:16:00,
2013-11-02 11:21:00,43.9,43.3,29.76,North,355,4.2,7.2,98,0.00,,,0.19,WUHU216HW,2013-11-02 15:21:00,
2013-11-02 11:26:00,43.9,43.3,29.77,North,5,4.6,5.1,98,0.00,,,0.19,WUHU216HW,2013-11-02 15:26:00,
2013-11-02 11:31:00,44.1,43.2,29.77,North,349,3.8,4.3,97,0.00,,,0.19,WUHU216HW,2013-11-02 15:31:00,
2013-11-02 11:36:00,43.9,42.7,29.77,North,6,4.6,5.4,96,0.00,,,0.19,WUHU216HW,2013-11-02 15:36:00,
2013-11-02 11:41:00,43.9,42.7,29.78,North,359,4.4,5.4,96,0.00,,,0.19,WUHU216HW,2013-11-02 15:41:00,
2013-11-02 11:46:00,44.5,43.3,29.78,NNW,332,2.8,3.4,96,0.00,,,0.19,WUHU216HW,2013-11-02 15:46:00,
2013-11-02 11:51:00,44.6,43.4,29.79,North,349,1.8,3.4,96,0.00,,,0.19,WUHU216HW,2013-11-02 15:51:00,
2013-11-02 11:56:00,44.8,43.3,29.79,NNW,348,1.7,1.8,94,0.00,,,0.19,WUHU216HW,2013-11-02 15:56:00,
2013-11-02 12:01:00,45.0,43.4,29.79,North,356,2.8,3.6,94,0.00,,,0.19,WUHU216HW,2013-11-02 16:01:00,
2013-11-02 12:06:00,45.0,43.4,29.79,NNW,346,2.1,4.0,94,0.00,,,0.19,WUHU216HW,2013-11-02 16:06:00,
2013-11-02 12:11:00,45.2,43.6,29.79,NW,324,1.7,2.5,94,0.00,,,0.19,WUHU216HW,2013-11-02 16:11:00,
2013-11-02 12:16:00,45.7,44.1,29.80,North,351,3.5,4.5,94,0.00,,,0.19,WUHU216HW,2013-11-02 16:16:00,
2013-11-02 12:21:00,45.9,44.0,29.80,NNW,342,2.4,3.1,93,0.00,,,0.19,WUHU216HW,2013-11-02 16:21:00,
2013-11-02 12:26:00,45.7,43.5,29.80,NNW,338,3.1,3.4,92,0.00,,,0.19,WUHU216HW,2013-11-02 16:26:00,
2013-11-02 12:31:00,45.5,43.6,29.80,NNW,341,2.5,2.7,93,0.00,,,0.19,WUHU216HW,2013-11-02 16:31:00,
2013-11-02 12:36:00,45.4,43.2,29.80,NNW,345,2.3,3.1,92,0.00,,,0.19,WUHU216HW,2013-11-02 16:36:00,
2013-11-02 12:41:00,45.5,43.3,29.80,NNW,338,1.8,2.2,92,0.00,,,0.19,WUHU216HW,2013-11-02 16:41:00,
2013-11-02 12:46:00,45.7,43.2,29.81,North,352,2.0,2.7,91,0.00,,,0.19,WUHU216HW,2013-11-02 16:46:00,
2013-11-02 12:51:00,45.9,43.7,29.81,North,353,2.3,2.7,92,0.00,,,0.19,WUHU216HW,2013-11-02 16:51:00,
2013-11-02 12:56:00,45.7,43.2,29.81,NW,323,3.0,3.6,91,0.00,,,0.19,WUHU216HW,2013-11-02 16:56:00,
2013-11-02 13:01:00,45.5,43.0,29.81,NW,326,1.5,2.0,91,0.00,,,0.19,WUHU216HW,2013-11-02 17:01:00,
2013-11-02 13:06:00,45.5,43.0,29.81,NNW,347,1.9,3.1,91,0.00,,,0.19,WUHU216HW,2013-11-02 17:06:00,
2013-11-02 13:11:00,45.4,43.2,29.81,NNW,331,1.9,3.4,92,0.00,,,0.19,WUHU216HW,2013-11-02 17:11:00,
2013-11-02 13:17:00,45.2,43.0,29.81,North,359,5.1,7.8,92,0.00,,,0.19,WUHU216HW,2013-11-02 17:17:00,
2013-11-02 13:22:00,45.2,43.3,29.81,North,354,2.4,3.1,93,0.00,,,0.19,WUHU216HW,2013-11-02 17:22:00,
2013-11-02 13:27:00,45.0,43.1,29.81,NNE,29,2.5,4.0,93,0.00,,,0.19,WUHU216HW,2013-11-02 17:27:00,
2013-11-02 13:32:00,45.0,43.1,29.81,NNE,12,4.1,4.7,93,0.00,,,0.19,WUHU216HW,2013-11-02 17:32:00,
2013-11-02 13:37:00,45.0,43.1,29.81,NNE,12,2.7,3.1,93,0.00,,,0.19,WUHU216HW,2013-11-02 17:37:00,
2013-11-02 13:42:00,45.2,43.3,29.81,North,3,4.1,5.6,93,0.00,,,0.19,WUHU216HW,2013-11-02 17:42:00,
2013-11-02 13:47:00,45.2,43.3,29.81,North,3,5.0,6.3,93,0.00,,,0.19,WUHU216HW,2013-11-02 17:47:00,
2013-11-02 13:52:00,45.4,43.5,29.81,North,357,4.4,4.9,93,0.00,,,0.19,WUHU216HW,2013-11-02 17:52:00,
2013-11-02 13:57:00,45.7,43.8,29.81,NNW,347,3.6,4.7,93,0.00,,,0.19,WUHU216HW,2013-11-02 17:57:00,
2013-11-02 14:02:00,45.9,43.7,29.81,NNW,344,2.4,3.1,92,0.00,,,0.19,WUHU216HW,2013-11-02 18:02:00,
2013-11-02 14:07:00,45.7,43.5,29.82,NNE,18,5.0,5.6,92,0.00,,,0.19,WUHU216HW,2013-11-02 18:07:00,
2013-11-02 14:12:00,45.7,43.5,29.82,NW,320,5.2,5.6,92,0.00,,,0.19,WUHU216HW,2013-11-02 18:12:00,
2013-11-02 14:17:00,45.5,43.3,29.82,NNE,18,3.7,4.0,92,0.00,,,0.19,WUHU216HW,2013-11-02 18:17:00,
2013-11-02 14:22:00,45.4,43.5,29.82,NE,34,3.0,3.4,93,0.00,,,0.19,WUHU216HW,2013-11-02 18:22:00,
2013-11-02 14:27:00,45.2,43.3,29.82,North,4,3.5,5.8,93,0.00,,,0.19,WUHU216HW,2013-11-02 18:27:00,
2013-11-02 14:32:00,44.8,42.9,29.82,North,2,3.9,5.8,93,0.00,,,0.19,WUHU216HW,2013-11-02 18:32:00,
2013-11-02 14:37:00,44.8,42.9,29.83,North,358,5.2,6.5,93,0.00,,,0.19,WUHU216HW,2013-11-02 18:37:00,
2013-11-02 14:42:00,44.6,42.7,29.83,North,4,4.6,7.6,93,0.00,,,0.19,WUHU216HW,2013-11-02 18:42:00,
2013-11-02 14:47:00,44.3,42.8,29.83,North,357,3.8,5.4,94,0.00,,,0.19,WUHU216HW,2013-11-02 18:47:00,
2013-11-02 14:52:00,44.1,42.6,29.83,North,6,2.9,4.0,94,0.00,,,0.19,WUHU216HW,2013-11-02 18:52:00,
2013-11-02 14:57:00,44.3,43.1,29.83,North,1,2.3,2.9,96,0.00,,,0.19,WUHU216HW,2013-11-02 18:57:00,
2013-11-02 15:02:00,44.6,43.4,29.84,NNE,16,2.2,3.4,96,0.00,,,0.19,WUHU216HW,2013-11-02 19:02:00,
2013-11-02 15:07:00,44.6,43.4,29.84,North,0,4.4,5.4,96,0.00,,,0.19,WUHU216HW,2013-11-02 19:07:00,
2013-11-02 15:12:00,45.0,43.4,29.84,North,0,3.9,4.7,94,0.00,,,0.19,WUHU216HW,2013-11-02 19:12:00,
2013-11-02 15:17:00,44.8,43.3,29.84,NNE,20,4.2,5.4,94,0.00,,,0.19,WUHU216HW,2013-11-02 19:17:00,
2013-11-02 15:22:00,44.6,43.1,29.84,North,0,4.6,6.7,94,0.00,,,0.19,WUHU216HW,2013-11-02 19:22:00,
2013-11-02 15:27:00,44.6,42.7,29.85,North,1,3.7,4.3,93,0.00,,,0.19,WUHU216HW,2013-11-02 19:27:00,
2013-11-02 15:32:00,44.8,42.9,29.85,NNW,338,2.7,3.6,93,0.00,,,0.19,WUHU216HW,2013-11-02 19:32:00,
2013-11-02 15:37:00,45.0,43.1,29.85,North,8,3.1,4.0,93,0.00,,,0.19,WUHU216HW,2013-11-02 19:37:00,
2013-11-02 15:42:00,44.6,42.7,29.86,North,1,3.8,6.5,93,0.00,,,0.19,WUHU216HW,2013-11-02 19:42:00,
2013-11-02 15:47:00,44.3,42.4,29.86,North,5,7.4,9.6,93,0.00,,,0.19,WUHU216HW,2013-11-02 19:47:00,
2013-11-02 15:52:00,43.9,42.4,29.86,North,0,3.3,4.7,94,0.00,,,0.19,WUHU216HW,2013-11-02 19:52:00,
2013-11-02 15:57:00,43.9,42.7,29.86,North,352,2.2,4.5,96,0.00,,,0.19,WUHU216HW,2013-11-02 19:57:00,
2013-11-02 16:03:00,43.7,42.2,29.87,North,7,4.3,6.5,94,0.00,,,0.19,WUHU216HW,2013-11-02 20:03:00,
2013-11-02 16:08:00,43.7,42.2,29.87,North,8,5.6,8.9,94,0.00,,,0.19,WUHU216HW,2013-11-02 20:08:00,
2013-11-02 16:13:00,43.7,42.2,29.87,North,6,4.2,4.7,94,0.00,,,0.19,WUHU216HW,2013-11-02 20:13:00,
2013-11-02 16:18:00,43.7,42.2,29.87,NE,51,5.1,6.0,94,0.00,,,0.19,WUHU216HW,2013-11-02 20:18:00,
2013-11-02 16:23:00,43.6,41.7,29.87,North,11,5.0,6.3,93,0.00,,,0.19,WUHU216HW,2013-11-02 20:23:00,
2013-11-02 16:28:00,43.7,41.8,29.88,North,0,2.9,2.9,93,0.00,,,0.19,WUHU216HW,2013-11-02 20:28:00,
2013-11-02 16:33:00,43.7,41.8,29.88,North,355,4.8,5.4,93,0.00,,,0.19,WUHU216HW,2013-11-02 20:33:00,
2013-11-02 16:38:00,43.6,41.7,29.88,North,10,2.2,2.9,93,0.00,,,0.19,WUHU216HW,2013-11-02 20:38:00,
2013-11-02 16:43:00,43.6,41.7,29.89,NNE,14,3.9,4.7,93,0.00,,,0.19,WUHU216HW,2013-11-02 20:43:00,
2013-11-02 16:48:00,43.4,41.5,29.89,North,7,3.4,4.7,93,0.00,,,0.19,WUHU216HW,2013-11-02 20:48:00,
2013-11-02 16:53:00,43.4,41.9,29.89,NNE,16,3.0,3.4,94,0.00,,,0.19,WUHU216HW,2013-11-02 20:53:00,
2013-11-02 16:58:00,43.2,41.7,29.89,North,357,2.2,3.1,94,0.00,,,0.19,WUHU216HW,2013-11-02 20:58:00,
2013-11-02 17:03:00,43.2,41.3,29.89,NNW,347,2.0,2.7,93,0.00,,,0.19,WUHU216HW,2013-11-02 21:03:00,
2013-11-02 17:08:00,43.0,41.2,29.90,North,0,3.9,4.7,93,0.00,,,0.19,WUHU216HW,2013-11-02 21:08:00,
2013-11-02 17:13:00,43.0,41.2,29.90,North,0,2.4,3.6,93,0.00,,,0.19,WUHU216HW,2013-11-02 21:13:00,
2013-11-02 17:18:00,43.0,41.2,29.90,North,0,2.5,4.0,93,0.00,,,0.19,WUHU216HW,2013-11-02 21:18:00,
2013-11-02 17:23:00,43.2,41.3,29.91,NNE,13,2.6,3.6,93,0.00,,,0.19,WUHU216HW,2013-11-02 21:23:00,
2013-11-02 17:28:00,43.0,41.2,29.91,North,1,3.8,4.9,93,0.00,,,0.19,WUHU216HW,2013-11-02 21:28:00,
2013-11-02 17:33:00,43.0,41.2,29.91,NNE,29,3.8,4.7,93,0.00,,,0.19,WUHU216HW,2013-11-02 21:33:00,
2013-11-02 17:38:00,42.7,40.5,29.91,North,358,4.4,6.0,92,0.00,,,0.19,WUHU216HW,2013-11-02 21:38:00,
2013-11-02 17:43:00,42.5,40.3,29.92,North,5,3.5,4.0,92,0.00,,,0.19,WUHU216HW,2013-11-02 21:43:00,
2013-11-02 17:48:00,42.1,40.3,29.92,North,349,3.5,3.6,93,0.00,,,0.19,WUHU216HW,2013-11-02 21:48:00,
2013-11-02 17:53:00,42.1,40.3,29.92,North,5,2.4,3.1,93,0.00,,,0.19,WUHU216HW,2013-11-02 21:53:00,
2013-11-02 17:58:00,41.9,40.4,29.92,North,11,2.9,3.4,94,0.00,,,0.19,WUHU216HW,2013-11-02 21:58:00,
2013-11-02 18:03:00,41.8,40.3,29.93,NNE,22,2.5,3.4,94,0.00,,,0.19,WUHU216HW,2013-11-02 22:03:00,
2013-11-02 18:08:00,41.8,40.0,29.93,NNE,13,1.7,2.0,93,0.00,,,0.19,WUHU216HW,2013-11-02 22:08:00,
2013-11-02 18:13:00,41.8,40.0,29.94,ENE,75,1.8,2.7,93,0.00,,,0.19,WUHU216HW,2013-11-02 22:13:00,
2013-11-02 18:18:00,41.6,39.4,29.94,North,6,2.5,2.7,92,0.00,,,0.19,WUHU216HW,2013-11-02 22:18:00,
2013-11-02 18:23:00,41.6,39.4,29.94,North,0,3.1,3.6,92,0.00,,,0.19,WUHU216HW,2013-11-02 22:23:00,
2013-11-02 18:28:00,41.6,39.4,29.94,North,349,2.1,3.4,92,0.00,,,0.19,WUHU216HW,2013-11-02 22:28:00,
2013-11-02 18:34:00,41.4,39.3,29.94,North,0,1.6,3.4,92,0.00,,,0.19,WUHU216HW,2013-11-02 22:34:00,
2013-11-02 18:39:00,41.4,39.3,29.94,North,356,5.0,6.3,92,0.00,,,0.19,WUHU216HW,2013-11-02 22:39:00,
2013-11-02 18:44:00,41.4,39.3,29.94,NNW,338,0.9,2.7,92,0.00,,,0.19,WUHU216HW,2013-11-02 22:44:00,
2013-11-02 18:49:00,41.2,39.4,29.95,North,355,2.3,3.1,93,0.00,,,0.19,WUHU216HW,2013-11-02 22:49:00,
2013-11-02 18:54:00,41.2,39.1,29.95,NNE,12,2.9,4.0,92,0.00,,,0.19,WUHU216HW,2013-11-02 22:54:00,
2013-11-02 18:59:00,41.2,39.4,29.95,NNE,16,1.6,2.2,93,0.00,,,0.19,WUHU216HW,2013-11-02 22:59:00,
2013-11-02 19:04:00,41.2,39.4,29.95,NE,40,1.2,2.5,93,0.00,,,0.19,WUHU216HW,2013-11-02 23:04:00,
2013-11-02 19:09:00,41.0,39.2,29.95,North,4,0.6,1.1,93,0.00,,,0.19,WUHU216HW,2013-11-02 23:09:00,
2013-11-02 19:14:00,40.9,39.1,29.96,North,0,1.4,2.2,93,0.00,,,0.19,WUHU216HW,2013-11-02 23:14:00,
2013-11-02 19:19:00,40.7,38.9,29.96,North,3,1.0,1.8,93,0.00,,,0.19,WUHU216HW,2013-11-02 23:19:00,
2013-11-02 19:24:00,40.1,38.3,29.96,NNE,15,1.9,2.9,93,0.00,,,0.19,WUHU216HW,2013-11-02 23:24:00,
2013-11-02 19:29:00,39.8,38.0,29.96,North,0,0.9,1.1,93,0.00,,,0.19,WUHU216HW,2013-11-02 23:29:00,
2013-11-02 19:34:00,39.4,37.9,29.96,North,0,0.6,1.1,94,0.00,,,0.19,WUHU216HW,2013-11-02 23:34:00,
2013-11-02 19:39:00,39.1,37.6,29.97,North,0,0.7,1.3,94,0.00,,,0.19,WUHU216HW,2013-11-02 23:39:00,
2013-11-02 19:44:00,38.9,37.4,29.97,NNE,23,0.8,0.9,94,0.00,,,0.19,WUHU216HW,2013-11-02 23:44:00,
2013-11-02 19:49:00,38.5,37.0,29.97,North,0,1.1,1.8,94,0.00,,,0.19,WUHU216HW,2013-11-02 23:49:00,
2013-11-02 19:54:00,38.3,36.8,29.98,North,356,0.7,1.6,94,0.00,,,0.19,WUHU216HW,2013-11-02 23:54:00,
2013-11-02 19:59:00,38.2,36.7,29.98,NNE,14,1.6,1.8,94,0.00,,,0.19,WUHU216HW,2013-11-02 23:59:00,
2013-11-02 20:04:00,38.0,36.8,29.98,North,7,1.1,1.3,96,0.00,,,0.19,WUHU216HW,2013-11-03 00:04:00,
2013-11-02 20:09:00,38.0,36.8,29.98,ESE,113,0.5,1.1,96,0.00,,,0.19,WUHU216HW,2013-11-03 00:09:00,
2013-11-02 20:14:00,37.8,36.6,29.99,North,0,0.4,0.7,96,0.00,,,0.19,WUHU216HW,2013-11-03 00:14:00,
2013-11-02 20:19:00,37.4,36.2,29.99,North,0,0.0,0.0,96,0.00,,,0.19,WUHU216HW,2013-11-03 00:19:00,
2013-11-02 20:24:00,37.1,35.9,29.99,NE,45,0.1,0.2,96,0.00,,,0.19,WUHU216HW,2013-11-03 00:24:00,
2013-11-02 20:29:00,36.9,35.7,29.99,NE,45,0.0,0.2,96,0.00,,,0.19,WUHU216HW,2013-11-03 00:29:00,
2013-11-02 20:34:00,36.7,35.8,30.00,North,355,0.4,0.7,97,0.00,,,0.19,WUHU216HW,2013-11-03 00:34:00,
2013-11-02 20:39:00,36.5,35.6,30.00,East,89,1.0,1.1,97,0.00,,,0.19,WUHU216HW,2013-11-03 00:39:00,
2013-11-02 20:44:00,36.7,36.1,30.00,NNE,23,2.5,4.3,98,0.00,,,0.19,WUHU216HW,2013-11-03 00:44:00,
2013-11-02 20:49:00,36.9,36.0,30.00,East,90,0.4,0.9,97,0.00,,,0.19,WUHU216HW,2013-11-03 00:49:00,
2013-11-02 20:54:00,36.7,35.8,30.00,North,0,0.8,1.1,97,0.00,,,0.19,WUHU216HW,2013-11-03 00:54:00,
2013-11-02 20:59:00,36.9,36.0,30.00,NNE,14,2.1,3.6,97,0.00,,,0.19,WUHU216HW,2013-11-03 00:59:00,
2013-11-02 21:04:00,37.1,36.2,30.00,ENE,60,0.4,0.4,97,0.00,,,0.19,WUHU216HW,2013-11-03 01:04:00,
2013-11-02 21:09:00,36.9,36.0,30.00,NNE,19,0.4,1.8,97,0.00,,,0.19,WUHU216HW,2013-11-03 01:09:00,
2013-11-02 21:14:00,36.9,36.0,30.01,North,0,1.1,1.8,97,0.00,,,0.19,WUHU216HW,2013-11-03 01:14:00,
2013-11-02 21:19:00,36.7,35.8,30.01,North,7,0.6,0.9,97,0.00,,,0.19,WUHU216HW,2013-11-03 01:19:00,
2013-11-02 21:24:00,36.5,35.6,30.02,North,9,1.1,1.8,97,0.00,,,0.19,WUHU216HW,2013-11-03 01:24:00,
2013-11-02 21:30:00,36.4,35.5,30.02,North,0,1.1,2.5,97,0.00,,,0.19,WUHU216HW,2013-11-03 01:30:00,
2013-11-02 21:35:00,36.2,35.3,30.02,North,0,0.2,0.4,97,0.00,,,0.19,WUHU216HW,2013-11-03 01:35:00,
2013-11-02 21:40:00,36.0,35.1,30.02,North,8,1.0,1.6,97,0.00,,,0.19,WUHU216HW,2013-11-03 01:40:00,
2013-11-02 21:45:00,35.6,34.4,30.02,North,11,0.8,1.3,96,0.00,,,0.19,WUHU216HW,2013-11-03 01:45:00,
2013-11-02 21:50:00,35.5,34.3,30.02,North,10,0.4,0.4,96,0.00,,,0.19,WUHU216HW,2013-11-03 01:50:00,
2013-11-02 21:55:00,35.3,34.1,30.03,NNE,15,1.2,1.6,96,0.00,,,0.19,WUHU216HW,2013-11-03 01:55:00,
2013-11-02 22:00:00,35.5,34.6,30.03,NNE,23,0.5,1.1,97,0.00,,,0.19,WUHU216HW,2013-11-03 02:00:00,
2013-11-02 22:05:00,35.3,34.4,30.03,NNE,15,1.2,2.5,97,0.00,,,0.19,WUHU216HW,2013-11-03 02:05:00,
2013-11-02 22:10:00,35.5,34.6,30.03,East,92,0.4,1.1,97,0.00,,,0.19,WUHU216HW,2013-11-03 02:10:00,
2013-11-02 22:15:00,35.3,34.4,30.04,East,84,1.5,2.5,97,0.00,,,0.19,WUHU216HW,2013-11-03 02:15:00,
2013-11-02 22:20:00,35.3,34.4,30.04,East,80,1.9,2.7,97,0.00,,,0.19,WUHU216HW,2013-11-03 02:20:00,
2013-11-02 22:25:00,35.5,34.6,30.04,East,87,1.1,2.2,97,0.00,,,0.19,WUHU216HW,2013-11-03 02:25:00,
2013-11-02 22:30:00,35.5,34.6,30.04,West,274,2.3,2.5,97,0.00,,,0.19,WUHU216HW,2013-11-03 02:30:00,
2013-11-02 22:35:00,35.3,34.4,30.04,NE,47,1.4,4.3,97,0.00,,,0.19,WUHU216HW,2013-11-03 02:35:00,
2013-11-02 22:40:00,35.1,34.2,30.05,NE,45,0.2,0.4,97,0.00,,,0.19,WUHU216HW,2013-11-03 02:40:00,
2013-11-02 22:45:00,34.9,34.0,30.05,East,85,1.1,1.8,97,0.00,,,0.19,WUHU216HW,2013-11-03 02:45:00,
2013-11-02 22:50:00,34.9,34.0,30.05,East,88,2.1,4.0,97,0.00,,,0.19,WUHU216HW,2013-11-03 02:50:00,
2013-11-02 22:55:00,34.9,34.0,30.05,East,83,2.1,3.4,97,0.00,,,0.19,WUHU216HW,2013-11-03 02:55:00,
2013-11-02 23:00:00,34.9,34.0,30.05,East,93,2.6,2.9,97,0.00,,,0.19,WUHU216HW,2013-11-03 03:00:00,
2013-11-02 23:05:00,34.7,33.8,30.06,ENE,68,0.3,0.9,97,0.00,,,0.19,WUHU216HW,2013-11-03 03:05:00,
2013-11-02 23:10:00,34.6,33.7,30.06,East,87,0.6,1.1,97,0.00,,,0.19,WUHU216HW,2013-11-03 03:10:00,
2013-11-02 23:15:00,34.4,33.5,30.06,NE,45,0.1,0.4,97,0.00,,,0.19,WUHU216HW,2013-11-03 03:15:00,
2013-11-02 23:20:00,34.2,33.3,30.06,North,0,0.0,0.0,97,0.00,,,0.19,WUHU216HW,2013-11-03 03:20:00,
2013-11-02 23:25:00,34.2,33.3,30.06,ENE,68,0.3,0.4,97,0.00,,,0.19,WUHU216HW,2013-11-03 03:25:00,
2013-11-02 23:30:00,34.2,33.3,30.06,East,80,0.5,0.9,97,0.00,,,0.19,WUHU216HW,2013-11-03 03:30:00,
2013-11-02 23:35:00,34.0,33.1,30.06,East,90,0.8,1.1,97,0.00,,,0.19,WUHU216HW,2013-11-03 03:35:00,
2013-11-02 23:40:00,33.8,32.9,30.07,East,85,0.7,1.3,97,0.00,,,0.19,WUHU216HW,2013-11-03 03:40:00,
2013-11-02 23:45:00,33.8,32.9,30.07,NNE,23,0.7,0.7,97,0.00,,,0.19,WUHU216HW,2013-11-03 03:45:00,
2013-11-02 23:50:00,33.8,32.9,30.07,NE,45,0.2,0.4,97,0.00,,,0.19,WUHU216HW,2013-11-03 03:50:00,
2013-11-02 23:55:00,33.7,32.8,30.07,NE,45,0.0,0.4,97,0.00,,,0.19,WUHU216HW,2013-11-03 03:55:00,